Weather History for KW43 - September, 2013

Change the Weather History Date:

Tuesday, September 24, 2013

  Actual Average (KEFC) Record (KEFC)
Temperature  
Mean Temperature 56 °F -  
Max Temperature 73 °F 74 °F 94 °F (1992)
Min Temperature 39 °F 39 °F 23 °F (1965)
Degree Days  
Heating Degree Days 9    
Growing Degree Days 6 (Base 50)    
Moisture  
Dew Point 37 °F    
Average Humidity 49    
Maximum Humidity 87    
Minimum Humidity 25    
Precipitation  
Precipitation 0.00 in - - ()
Sea Level Pressure  
Sea Level Pressure 29.92 in    
Wind  
Wind Speed 8 mph (South)    
Max Wind Speed 28 mph    
Max Gust Speed 41 mph    
Visibility 10 miles    
Events      
Averages and records for this station are not official NWS values.
T = Trace of Precipitation, MM = Missing Value Source: NWS Daily Summary

Daily Weather History Graph

Daily Weather History Graph

Search for Another Location

Airport or City:

Trip Planner

Search our weather history database for the weather conditions in past years. The results will help you decide how hot, cold, wet, or windy it might be!

Date:

Astronomy

Sep. 24, 2013 Rise Set
Actual Time 6:48 AM MDT 6:51 PM MDT
Civil Twilight 6:19 AM MDT 7:20 PM MDT
Nautical Twilight 5:44 AM MDT 7:54 PM MDT
Astronomical Twilight 5:09 AM MDT 8:29 PM MDT
Moon 9:58 PM MDT (9/24) 12:17 PM MDT (9/24)
Length of Visible Light 13h 01m
Length of Day
12h 03m
Waning Gibbous, 72% of the Moon is Illuminated
Sep 24
Waning Gibbous
Sep 26
Last Quarter
Oct 4
New
Oct 11
First Quarter
Oct 18
Full

Hourly Weather History & Observations

Time (MDT) Temp. Windchill Dew Point Humidity Pressure Visibility Wind Dir Wind Speed Gust Speed Precip Events Conditions
12:15 AM 42.8 °F 41.1 °F 37.4 °F 81% 29.98 in 10.0 mi South 3.5 mph - N/A   Clear
12:35 AM 42.8 °F 38.0 °F 37.4 °F 81% 29.99 in 10.0 mi South 8.1 mph - N/A   Clear
12:55 AM 42.8 °F - 37.4 °F 81% 29.99 in 10.0 mi Calm Calm - N/A   Clear
1:35 AM 41.0 °F 36.4 °F 37.4 °F 87% 29.99 in 10.0 mi South 6.9 mph - N/A   Clear
1:55 AM 42.8 °F - 35.6 °F 76% 30.00 in 10.0 mi Calm Calm - N/A   Clear
2:15 AM 41.0 °F 36.4 °F 35.6 °F 81% 30.00 in 10.0 mi SSW 6.9 mph - N/A   Clear
2:35 AM 41.0 °F 35.2 °F 35.6 °F 81% 30.00 in 10.0 mi South 9.2 mph - N/A   Clear
2:55 AM 42.8 °F - 35.6 °F 76% 30.01 in 10.0 mi Calm Calm - N/A   Clear
3:35 AM 41.0 °F 39.0 °F 35.6 °F 81% 30.02 in 10.0 mi South 3.5 mph - N/A   Clear
3:55 AM 41.0 °F 39.0 °F 35.6 °F 81% 30.01 in 10.0 mi South 3.5 mph - N/A   Clear
4:15 AM 39.2 °F - 35.6 °F 87% 30.03 in 10.0 mi Calm Calm - N/A   Clear
4:35 AM 41.0 °F 37.1 °F 35.6 °F 81% 30.03 in 10.0 mi SSW 5.8 mph - N/A   Clear
4:55 AM 41.0 °F 36.4 °F 35.6 °F 81% 30.03 in 10.0 mi South 6.9 mph - N/A   Clear
5:15 AM 41.0 °F - 35.6 °F 81% 30.03 in 10.0 mi Calm Calm - N/A   Clear
5:35 AM 42.8 °F - 35.6 °F 76% 30.03 in 10.0 mi North - - N/A   Clear
5:55 AM 42.8 °F - 35.6 °F 76% 30.03 in 10.0 mi Calm Calm - N/A   Clear
6:15 AM 42.8 °F - 35.6 °F 76% 30.03 in 10.0 mi North - - N/A   Clear
6:35 AM 42.8 °F - 35.6 °F 76% 30.03 in 10.0 mi North - - N/A   Clear
6:55 AM 42.8 °F - 35.6 °F 76% 30.03 in 10.0 mi Calm Calm - N/A   Clear
7:15 AM 42.8 °F - 35.6 °F 76% 30.03 in 10.0 mi North - - N/A   Clear
7:35 AM 44.6 °F - 35.6 °F 71% 30.03 in 10.0 mi Calm Calm - N/A   Clear
7:55 AM 46.4 °F - 37.4 °F 71% 30.03 in 10.0 mi North - - N/A   Clear
8:15 AM 48.2 °F - 41.0 °F 76% 30.03 in 10.0 mi North - - N/A   Clear
8:35 AM 50.0 °F - 41.0 °F 71% 30.04 in 10.0 mi Calm Calm - N/A   Clear
8:55 AM 51.8 °F - 42.8 °F 71% 30.04 in 10.0 mi North - - N/A   Clear
9:15 AM 53.6 °F - 42.8 °F 67% 30.03 in 10.0 mi North - - N/A   Clear
9:35 AM 55.4 °F - 42.8 °F 63% 30.03 in 10.0 mi North - - N/A   Clear
9:55 AM 60.8 °F - 44.6 °F 55% 30.03 in 10.0 mi SSW 4.6 mph - N/A   Clear
10:15 AM 64.4 °F - 41.0 °F 42% 30.02 in 10.0 mi SW 4.6 mph - N/A   Clear
10:35 AM 66.2 °F - 39.2 °F 37% 30.02 in 10.0 mi SSW 12.7 mph 17.3 mph N/A   Clear
10:55 AM 66.2 °F - 37.4 °F 35% 30.01 in 10.0 mi South 15.0 mph 20.7 mph N/A   Clear
11:15 AM 68.0 °F - 37.4 °F 33% 30.00 in 10.0 mi South 10.4 mph - N/A   Clear
11:55 AM 68.0 °F - 37.4 °F 33% 29.99 in 10.0 mi South 10.4 mph - N/A   Clear
12:15 PM 69.8 °F - 37.4 °F 31% 29.98 in 10.0 mi South 9.2 mph - N/A   Clear
12:35 PM 69.8 °F - 35.6 °F 28% 29.97 in 10.0 mi South 13.8 mph - N/A   Clear
12:55 PM 69.8 °F - 35.6 °F 28% 29.97 in 10.0 mi South 15.0 mph 19.6 mph N/A   Clear
1:15 PM 69.8 °F - 35.6 °F 28% 29.96 in 10.0 mi South 11.5 mph 20.7 mph N/A   Clear
1:35 PM 71.6 °F - 37.4 °F 29% 29.95 in 10.0 mi South 10.4 mph 21.9 mph N/A   Clear
1:55 PM 71.6 °F - 35.6 °F 27% 29.94 in 10.0 mi South 15.0 mph - N/A   Clear
2:15 PM 71.6 °F - 35.6 °F 27% 29.93 in 10.0 mi SSE 15.0 mph 23.0 mph N/A   Clear
2:35 PM 71.6 °F - 37.4 °F 29% 29.91 in 10.0 mi SSE 18.4 mph 21.9 mph N/A   Clear
2:55 PM 71.6 °F - 35.6 °F 27% 29.90 in 10.0 mi South 10.4 mph 21.9 mph N/A   Clear
3:15 PM 71.6 °F - 35.6 °F 27% 29.89 in 10.0 mi SSW 4.6 mph - N/A   Clear
3:35 PM 71.6 °F - 35.6 °F 27% 29.89 in 10.0 mi South 10.4 mph 21.9 mph N/A   Clear
3:55 PM 73.4 °F - 35.6 °F 25% 29.87 in 10.0 mi South 15.0 mph 20.7 mph N/A   Clear
4:15 PM 71.6 °F - 35.6 °F 27% 29.86 in 10.0 mi South 12.7 mph 18.4 mph N/A   Clear
4:35 PM 71.6 °F - 35.6 °F 27% 29.85 in 10.0 mi SSE 10.4 mph 20.7 mph N/A   Clear
4:55 PM 71.6 °F - 35.6 °F 27% 29.84 in 10.0 mi South 13.8 mph 21.9 mph N/A   Clear
5:15 PM 71.6 °F - 33.8 °F 25% 29.83 in 10.0 mi South 11.5 mph - N/A   Clear
5:35 PM 71.6 °F - 33.8 °F 25% 29.82 in 10.0 mi SSE 15.0 mph 18.4 mph N/A   Clear
5:55 PM 71.6 °F - 33.8 °F 25% 29.81 in 10.0 mi SSE 15.0 mph 20.7 mph N/A   Clear
6:15 PM 69.8 °F - 33.8 °F 27% 29.80 in 10.0 mi SSE 13.8 mph - N/A   Clear
6:35 PM 68.0 °F - 33.8 °F 28% 29.79 in 10.0 mi SSE 15.0 mph - N/A   Clear
6:55 PM 66.2 °F - 32.0 °F 28% 29.78 in 10.0 mi SE 12.7 mph 18.4 mph N/A   Clear
7:15 PM 66.2 °F - 32.0 °F 28% 29.78 in 10.0 mi SE 13.8 mph 18.4 mph N/A   Clear
7:35 PM 66.2 °F - 33.8 °F 30% 29.77 in 10.0 mi SE 12.7 mph - N/A   Clear
7:55 PM 64.4 °F - 33.8 °F 32% 29.78 in 10.0 mi SSE 11.5 mph 23.0 mph N/A   Clear
8:15 PM 66.2 °F - 33.8 °F 30% 29.77 in 10.0 mi SSE 19.6 mph 23.0 mph N/A   Clear
8:35 PM 68.0 °F - 33.8 °F 28% 29.77 in 10.0 mi South 19.6 mph 31.1 mph N/A   Clear
8:55 PM 68.0 °F - 35.6 °F 30% 29.77 in 10.0 mi South 19.6 mph 29.9 mph N/A   Clear
9:15 PM 68.0 °F - 37.4 °F 33% 29.77 in 10.0 mi South 18.4 mph 23.0 mph N/A   Clear
9:35 PM 68.0 °F - 37.4 °F 33% 29.77 in 10.0 mi South 19.6 mph 41.4 mph N/A   Clear
9:55 PM 68.0 °F - 37.4 °F 33% 29.76 in 10.0 mi South 20.7 mph 28.8 mph N/A   Clear
10:15 PM 68.0 °F - 37.4 °F 33% 29.75 in 10.0 mi North - - N/A   Clear
10:35 PM 68.0 °F - 37.4 °F 33% 29.74 in 10.0 mi South 27.6 mph 39.1 mph N/A   Clear
10:55 PM 66.2 °F - 37.4 °F 35% 29.73 in 10.0 mi South 21.9 mph 35.7 mph N/A   Clear
11:15 PM 66.2 °F - 37.4 °F 35% 29.73 in 10.0 mi South 20.7 mph 31.1 mph N/A   Clear
11:35 PM 66.2 °F - 37.4 °F 35% 29.72 in 10.0 mi South 17.3 mph 24.2 mph N/A   Clear
11:55 PM 66.2 °F - 37.4 °F 35% 29.73 in 10.0 mi South 18.4 mph 27.6 mph N/A   Clear